Content
SEND FEEDBACK

Daily
Averages
Monthly
Summary
Spain

PALMA, SPAIN


Home > Europe > Spain
Elevation: 26 feet     Latitude: 39 33N     Longitude: 002 44E

WEATHER
 
SELECT A DAY
Number of Records: 297,711;   Date Range: 7/1/96 - 8/12/14
 
SHARE

PRINT THIS DATA

[ ← Previous Day ]
WEATHER ALMANAC - FEBRUARY 1, 2013
[ Next Day → ]
[ °C ]   °F
Weather ElementAverageHighLow
Temperature55.1 °F60.8 °F (1:30 pm)50 °F (6:00 am)
Dewpoint53.3 °F57.2 °F (11:30 am)49 °F (7:00 am)
Humidity93.8 %100 % (12:30 am)72 % (11:30 pm)
Barometer30.12 in30.36 in (12:30 am)29.80 in (11:30 pm)
Wind Speed5.2 mph13.8 mph (1:00 pm)
Weather ElementAverage
Visibility3 mi
Wind DirectionSE (135.8 °)

Weather ElementTotal
Precipitation---
Heating Degree Days9.6 (Base 65)
Growing Degree Days5.4 (Base 50)
Averaged from 54 records on February 1, 2013
WEATHER CONDITIONS BREAKOUT
WIND DIRECTION BREAKOUT
WEATHER BY HOUR - FEBRUARY 1, 2013
[ °C ]   °F
Local TimeTemperatureDewpointHumidityBarometerVisibilityWind DirectionWind SpeedGust SpeedPrecipitationEventsConditions
12:30 AM51.8 °F51.8 °F100 %30.36 in0.4 miCalmFogPatches of Fog
1:00 AM52.0 °F50.0 °F92 %30.36 in0.0 miSW (230°)1.2 mphFogHeavy Fog
1:00 AM51.8 °F51.8 °F100 %30.36 in0.4 miSW (220°)3.5 mphFogPatches of Fog
1:30 AM51.8 °F51.8 °F100 %30.33 in0.4 miVariable2.3 mphFogPatches of Fog
2:00 AM53.6 °F53.6 °F100 %30.33 in0.4 miVariable2.3 mphFogPatches of Fog
2:30 AM51.8 °F51.8 °F100 %30.33 in1.2 miWSW (240°)4.6 mphFogPatches of Fog
3:00 AM53.6 °F53.6 °F100 %30.30 in1.2 miVariable2.3 mphFogPatches of Fog
3:30 AM53.6 °F53.6 °F100 %30.30 in1.2 miVariable2.3 mphFogPatches of Fog
4:00 AM53.6 °F53.6 °F100 %30.30 in1.2 miSW (230°)3.5 mphFogPatches of Fog
4:30 AM53.6 °F53.6 °F100 %30.27 in0.5 miCalmFogPatches of Fog
5:00 AM53.6 °F53.6 °F100 %30.27 in0.5 miVariable1.2 mphFogPatches of Fog
5:30 AM51.8 °F51.8 °F100 %30.27 in0.5 miVariable1.2 mphFogPatches of Fog
6:00 AM50.0 °F50.0 °F100 %30.24 in0.3 miNW (310°)1.2 mphFogPatches of Fog
6:30 AM50.0 °F50.0 °F100 %30.24 in0.2 miCalmFogPatches of Fog
7:00 AM50.0 °F49.0 °F94 %30.25 in0.0 miCalmFogHeavy Fog
7:00 AM50.0 °F50.0 °F100 %30.24 in0.2 miVariable1.2 mphFogPatches of Fog
7:30 AM50.0 °F50.0 °F100 %30.24 in0.2 miVariable1.2 mphFogPatches of Fog
8:00 AM50.0 °F50.0 °F100 %30.24 in0.1 miVariable1.2 mphFogPatches of Fog
8:30 AM50.0 °F50.0 °F100 %30.21 in0.1 miSSE (160°)2.3 mphFogPatches of Fog
9:00 AM50.0 °F50.0 °F100 %30.21 in0.1 miVariable2.3 mphFogPatches of Fog
9:30 AM51.8 °F51.8 °F100 %30.21 in0.1 miVariable1.2 mphFogPatches of Fog
10:00 AM51.8 °F51.8 °F100 %30.21 in0.1 miCalmFogPatches of Fog
10:30 AM53.6 °F53.6 °F100 %30.21 in0.1 miCalmFogPatches of Fog
11:00 AM53.6 °F53.6 °F100 %30.18 in0.1 miVariable1.2 mphFogPatches of Fog
11:05 AM53.6 °F53.6 °F100 %30.18 in0.6 miVariable1.2 mphFogPatches of Fog
11:10 AM55.4 °F55.4 °F100 %30.18 in1.9 miVariable1.2 mphFogPatches of Fog
11:16 AM55.4 °F55.4 °F100 %30.18 in5.0 miVariable1.2 mphPartly Cloudy
11:30 AM57.2 °F57.2 °F100 %30.18 in6.2 miSW (220°)5.8 mphPartly Cloudy
12:00 PM59.0 °F57.2 °F94 %30.15 in6.2 miSSW (210°)11.5 mphPartly Cloudy
12:30 PM59.0 °F57.2 °F94 %30.15 in6.2 miSSW (210°)10.4 mphFogPartly Cloudy
1:00 PM60.0 °F54.0 °F76 %30.14 in9.0 miSSW (210°)11.5 mphPartly Cloudy
1:00 PM59.0 °F57.2 °F94 %30.12 in6.2 miSSW (210°)13.8 mphPartly Cloudy
1:30 PM60.8 °F55.4 °F82 %30.12 in6.2 miSW (220°)12.7 mphPartly Cloudy
2:00 PM59.0 °F55.4 °F88 %30.09 in6.2 miSW (230°)13.8 mphPartly Cloudy
2:30 PM60.8 °F55.4 °F82 %30.06 in6.2 miSW (230°)11.5 mphPartly Cloudy
3:00 PM60.8 °F57.2 °F88 %30.04 in6.2 miSW (220°)11.5 mphPartly Cloudy
3:30 PM60.8 °F57.2 °F88 %30.04 in6.2 miSW (220°)11.5 mphPartly Cloudy
4:00 PM59.0 °F55.4 °F88 %30.01 in6.2 miSW (220°)9.2 mphPartly Cloudy
4:30 PM60.8 °F55.4 °F82 %29.98 in6.2 miWSW (240°)8.1 mphPartly Cloudy
5:00 PM59.0 °F55.4 °F88 %29.98 inSW (230°)10.4 mphClear
5:30 PM59.0 °F53.6 °F82 %29.98 inSW (230°)9.2 mphClear
6:00 PM57.2 °F53.6 °F88 %29.95 inSW (220°)9.2 mphClear
6:30 PM57.2 °F53.6 °F88 %29.95 in6.2 miSW (220°)8.1 mphPartly Cloudy
7:00 PM55.0 °F51.0 °F83 %29.95 in9.0 miSW (230°)6.9 mphScattered Clouds
7:00 PM57.2 °F53.6 °F88 %29.95 in6.2 miSW (220°)3.5 mphPartly Cloudy
7:30 PM57.2 °F53.6 °F88 %29.92 in6.2 miSW (220°)5.8 mphPartly Cloudy
8:00 PM57.2 °F53.6 °F88 %29.92 in6.2 miSW (230°)8.1 mphPartly Cloudy
8:30 PM57.2 °F53.6 °F88 %29.89 inSW (230°)6.9 mphClear
9:00 PM57.2 °F55.4 °F94 %29.89 inSW (230°)9.2 mphClear
9:30 PM55.4 °F53.6 °F94 %29.86 inSW (220°)8.1 mphClear
10:00 PM55.4 °F53.6 °F94 %29.86 inSW (230°)3.5 mphClear
10:30 PM55.4 °F53.6 °F94 %29.83 in5.6 miVariable2.3 mphPartly Cloudy
11:00 PM55.4 °F53.6 °F94 %29.83 in5.6 miSW (220°)4.6 mphPartly Cloudy
11:30 PM59.0 °F50.0 °F72 %29.80 inWSW (240°)13.8 mphClear
Hourly data recorded from LEPA, located miles away from Palma, Spain







STORIES FROM OUR PARTNERS